Printer-friendly version
Follow the MPC on Twitter Follow the MPC on Facebook The MPC blog
Minor Planet Center

MPEC 2005-N11 : COMET C/2005 H1 (LINEAR)

The following Minor Planet Electronic Circular may be linked-to from your own Web pages, but must not otherwise be redistributed electronically.

A form allowing access to any MPEC is at the bottom of this page.


Read MPEC 2005-N10 Read MPEC 2005-N12


M.P.E.C. 2005-N11                                Issued 2005 July 4, 00:02 UT

     The Minor Planet Electronic Circulars contain information on unusual
         minor planets and routine data on comets.  They are published
   on behalf of Commission 20 of the International Astronomical Union by the
          Minor Planet Center, Smithsonian Astrophysical Observatory,
                          Cambridge, MA 02138, U.S.A.

                  Supported in part by the Brinson Foundation
             Prepared using the Tamkin Foundation Computer Network

                              MPC@CFA.HARVARD.EDU
          URL http://cfa-www.harvard.edu/iau/mpc.html  ISSN 1523-6714

                           COMET C/2005 H1 (LINEAR)

Observations:
    CK05H010  C2005 06 30.21840 16 07 05.31 +41 20 59.3          19.0 T EN011673
    CK05H010  C2005 06 30.22199 16 07 05.14 +41 20 56.6                 EN011673
    CK05H010  C2005 06 30.22731 16 07 04.88 +41 20 52.7                 EN011673
    CK05H010  C2005 06 30.23264 16 07 04.61 +41 20 48.4                 EN011673
    CK05H010  C2005 07 01.29569 16 06 13.39 +41 07 04.6          19.2 T EN011703
    CK05H010  C2005 07 01.30645 16 06 12.85 +41 06 55.0          19.5 T EN011703
    CK05H010  C2005 07 01.31719 16 06 12.27 +41 06 46.5          19.6 T EN011703
    CK05H010  C2005 07 01.32803 16 06 11.84 +41 06 39.8          20.4 T EN011703

Observer details:
673 Table Mountain Observatory, Wrightwood.  Observer J. Young.  0.6-m
    reflector + CCD.
703 Catalina Sky Survey.  Observer A. Odell.  Measurers E. C. Beshore,
    C. M. Casey, E. J. Christensen, G. J. Garradd, A. D. Grauer, R. E. Hill,
    S. M. Larson, R. H. McNaught.  0.68-m Schmidt + CCD.

Orbital elements:
    C/2005 H1 (LINEAR)
T 2004 Oct. 28.3606 TT                                  MPC
q   4.768064             (2000.0)            P               Q
z  +0.021633       Peri.   95.1894      -0.1681266      -0.3034541
                   Node    71.4932      -0.4276834      -0.8347740
e   0.896853       Incl.   81.5107      +0.8881556      -0.4594214
From 139 observations 2005 Apr. 30-July 1.

Brian G. Marsden             (C) Copyright 2005 MPC           M.P.E.C. 2005-N11

Read MPEC 2005-N10 Read MPEC 2005-N12


MPEC number:

Enter an MPEC number in one of the following forms:

  • 1997-B01 (the full form)
  • J97B01 (the packed version of the full form)
  • B01 (the abbreviated form)

Valid HTML 4.01!